Regional Weather Roundup
Issued by NWS

Home | Current Version | Previous Version | Graphics & Text | Print | Product List | Glossary Off
Versions: 1 2 3 4 5 6 7 8 9 10 11 12 13 14 15 16 17 18 19 20 21 22 23 24 25 26 27 28 29 30 31 32 33 34 35 36 37 38 39 40 41 42 43 44 45 46 47 48 49 50

000
ASUS43 KTOP 201108
RWRKS

WEATHER ROUNDUP FOR KANSAS
NATIONAL WEATHER SERVICE GOODLAND KS
600 AM CDT SUN AUG 20 2017

NOTE:  "FAIR" INDICATES FEW OR NO CLOUDS BELOW 12,000 FEET WITH NO
SIGNIFICANT WEATHER AND/OR OBSTRUCTIONS TO VISIBILITY.

KSZ001>006-013>018-027>032-041>047-201200-
NORTHWEST KANSAS

CITY           SKY/WX    TMP DP  RH WIND       PRES   REMARKS
GOODLAND       CLOUDY    63  52  67 SW7       29.94R
HAYS           CLEAR     72  66  81 SW7       29.90S
HILL CITY      CLEAR     72  65  78 SW12      29.87S
RUSSELL        CLEAR     73  66  78 S9        29.88S
$$

KSZ061>065-074>080-084>089-201200-
SOUTHWEST KANSAS

CITY           SKY/WX    TMP DP  RH WIND       PRES   REMARKS
DODGE CITY     CLEAR     71  64  78 SW7       29.94S
ELKHART          N/A     67  63  87 S12         N/A
GARDEN CITY    CLEAR     67  64  90 S7        29.93F
GREAT BEND     CLEAR     71  67  87 SW5       29.91R
LIBERAL        CLEAR     68  65  90 SW8       29.97R
PRATT          PTCLDY    71  64  77 S9        29.94S
$$

KSZ066>073-081>083-090>101-201200-
SOUTHEAST KANSAS

CITY           SKY/WX    TMP DP  RH WIND       PRES   REMARKS
CHANUTE        PTCLDY    68  65  90 SE7       29.94F
COFFEYVILLE    CLEAR     74  72  93 S3        29.94F
HUTCHINSON     CLEAR     73  69  87 SE9       29.92S
MEDICINE LODGE   N/A     72  67  84 VRB3      29.93S
NEWTON         CLEAR     72  70  93 S10       29.94F
PARSONS        CLEAR     71  68  90 CALM      29.95S
WICHITA INTL   PTCLDY    73  70  90 S8        29.93F
WICHITA JABRA  CLEAR     74  71  91 S10       29.94F
WICHITA MCCONL CLEAR     73  68  84 S7        29.94F
WINFIELD       CLEAR     72  69  90 S8        29.95F
$$

KSZ007>012-019>026-033>040-048>060-102>105-201200-
NORTHEAST KANSAS

CITY           SKY/WX    TMP DP  RH WIND       PRES   REMARKS
CONCORDIA      PTCLDY    67  64  90 SE7G17    29.91F
EMPORIA        CLEAR     71  61  70 S5        29.93S
LAWRENCE       LGT RAIN  71  68  90 NE7       29.98R
MANHATTAN      CLOUDY    69  66  90 NE7       29.93F
MARYSVILLE     CLOUDY    64  63  94 CALM      29.94R
OLATHE IND     CLOUDY    73  63  70 N23G40    30.01R
OLATHE EXE     CLOUDY    74  65  73 N25G33    30.01R
SALINA         MOCLDY    81  69  67 E8        29.93R
TOPEKA BILLARD TSTM      69  68  96 CALM      29.97F FOG
TOPEKA FORBES  CLOUDY    73  65  75 N9G22     29.98S
$$



USA.gov is the U.S. government's official web portal to all federal, state and local government web resources and services.